AKJ251 VAPO-VABB

Flight info

Callsign AKJ251
Flight time 0h 18m
Altitude 12000
Route PPN W28 BBB
Aircraft B38M/M-SDE1FGHILORVWXY/HB1

Departure

Time 2026-04-25 11:59
Airport Pune International Airport (VAPO)

Arrival

Time 2026-04-25 12:17
Airport Chhatrapati Shivaji Maharaj International Airport (VABB)
Time Latitude Longitude Altitude Speed Heading
2026-04-25 11:53 18.58035 73.91084 1924 ft 0 kts 98°
2026-04-25 11:54 18.58035 73.91086 1924 ft 1 kts 98°
2026-04-25 11:54 18.58032 73.91104 1926 ft 4 kts 98°
2026-04-25 11:54 18.58043 73.91196 1927 ft 9 kts 41°
2026-04-25 11:55 18.58104 73.91230 1927 ft 11 kts 51°
2026-04-25 11:55 18.58107 73.91315 1927 ft 13 kts 94°
2026-04-25 11:55 18.58100 73.91422 1927 ft 16 kts 94°
2026-04-25 11:55 18.58093 73.91548 1927 ft 18 kts 93°
2026-04-25 11:56 18.58085 73.91693 1927 ft 21 kts 94°
2026-04-25 11:56 18.58074 73.91855 1927 ft 23 kts 94°
2026-04-25 11:56 18.58063 73.92034 1927 ft 26 kts 93°
2026-04-25 11:56 18.58050 73.92228 1927 ft 28 kts 94°
2026-04-25 11:57 18.58038 73.92439 1927 ft 30 kts 94°
2026-04-25 11:57 18.58025 73.92666 1927 ft 32 kts 93°
2026-04-25 11:57 18.58017 73.92825 1927 ft 12 kts 76°
2026-04-25 11:57 18.58086 73.92829 1927 ft 13 kts 320°
2026-04-25 11:58 18.58152 73.92752 1927 ft 15 kts 312°
2026-04-25 11:58 18.58194 73.92685 1927 ft 5 kts 265°
2026-04-25 11:58 18.58189 73.92598 1927 ft 35 kts 271°
2026-04-25 11:58 18.58223 73.92048 1927 ft 113 kts 274°
2026-04-25 11:59 18.58283 73.90989 2040 ft 166 kts 273°
2026-04-25 11:59 18.58337 73.89746 2798 ft 169 kts 273°
2026-04-25 11:59 18.58613 73.88568 3586 ft 174 kts 309°
2026-04-25 12:00 18.60965 73.88420 4723 ft 208 kts 34°
2026-04-25 12:00 18.62234 73.89328 5300 ft 232 kts 31°
2026-04-25 12:00 18.65533 73.89291 6549 ft 272 kts 323°
2026-04-25 12:01 18.66620 73.87674 7365 ft 283 kts 287°
2026-04-25 12:01 18.66627 73.85605 8279 ft 291 kts 252°
2026-04-25 12:01 18.65782 73.83630 9150 ft 299 kts 246°
2026-04-25 12:01 18.65001 73.81567 9655 ft 304 kts 250°
2026-04-25 12:02 18.64988 73.77240 9905 ft 299 kts 292°
2026-04-25 12:02 18.65831 73.75216 9970 ft 303 kts 295°
2026-04-25 12:02 18.66707 73.73195 9994 ft 304 kts 296°
2026-04-25 12:03 18.67602 73.71164 9997 ft 306 kts 296°
2026-04-25 12:03 18.68494 73.69165 10006 ft 306 kts 296°
2026-04-25 12:03 18.69408 73.67133 9949 ft 305 kts 296°
2026-04-25 12:03 18.70324 73.65106 9896 ft 304 kts 296°
2026-04-25 12:04 18.71239 73.63083 9862 ft 307 kts 297°
2026-04-25 12:04 18.72151 73.61066 9868 ft 308 kts 297°
2026-04-25 12:04 18.73071 73.59031 9861 ft 306 kts 298°
2026-04-25 12:04 18.73988 73.57005 9864 ft 303 kts 297°
2026-04-25 12:05 18.74881 73.55031 9863 ft 302 kts 298°
2026-04-25 12:05 18.75786 73.53031 9862 ft 301 kts 296°
2026-04-25 12:05 18.76691 73.51027 9843 ft 301 kts 297°
2026-04-25 12:05 18.77597 73.49020 9842 ft 303 kts 297°
2026-04-25 12:06 18.78504 73.47015 9809 ft 303 kts 297°
2026-04-25 12:06 18.79400 73.45033 9871 ft 302 kts 297°
2026-04-25 12:06 18.80303 73.43028 9673 ft 302 kts 297°
2026-04-25 12:06 18.81340 73.41086 9122 ft 301 kts 310°
2026-04-25 12:07 18.82673 73.39454 8720 ft 291 kts 313°
2026-04-25 12:07 18.83973 73.37880 8504 ft 277 kts 313°
2026-04-25 12:07 18.85205 73.36373 8214 ft 266 kts 313°
2026-04-25 12:07 18.86399 73.34909 7926 ft 261 kts 312°
2026-04-25 12:08 18.87604 73.33427 7658 ft 270 kts 312°
2026-04-25 12:08 18.88836 73.31910 7344 ft 274 kts 312°
2026-04-25 12:08 18.90083 73.30373 7042 ft 275 kts 312°
2026-04-25 12:08 18.91319 73.28849 6721 ft 275 kts 311°
2026-04-25 12:09 18.92565 73.27313 6430 ft 274 kts 311°
2026-04-25 12:09 18.93809 73.25777 6124 ft 274 kts 311°
2026-04-25 12:09 18.95051 73.24245 5805 ft 275 kts 311°
2026-04-25 12:09 18.96294 73.22710 5472 ft 274 kts 311°
2026-04-25 12:10 18.97525 73.21191 5161 ft 271 kts 311°
2026-04-25 12:10 18.98749 73.19679 4886 ft 269 kts 311°
2026-04-25 12:10 18.99959 73.18186 4616 ft 266 kts 313°
2026-04-25 12:10 19.01148 73.16715 4489 ft 259 kts 312°
2026-04-25 12:11 19.02291 73.15299 4317 ft 253 kts 313°
2026-04-25 12:11 19.03420 73.13903 4183 ft 245 kts 313°
2026-04-25 12:11 19.04504 73.12564 4110 ft 233 kts 313°
2026-04-25 12:11 19.05535 73.11289 4053 ft 222 kts 314°
2026-04-25 12:12 19.06523 73.10066 3944 ft 215 kts 312°
2026-04-25 12:12 19.07160 73.09278 3850 ft 212 kts 313°
2026-04-25 12:12 19.08439 73.07687 3692 ft 212 kts 309°
2026-04-25 12:12 19.09011 73.06275 3501 ft 211 kts 282°
2026-04-25 12:13 19.09122 73.04764 3218 ft 201 kts 273°
2026-04-25 12:13 19.09105 73.03335 2967 ft 184 kts 273°
2026-04-25 12:13 19.09082 73.02058 2698 ft 168 kts 274°
2026-04-25 12:13 19.09066 73.00876 2454 ft 155 kts 273°
2026-04-25 12:14 19.09051 72.99749 2204 ft 152 kts 274°
2026-04-25 12:14 19.09035 72.98616 1999 ft 155 kts 274°
2026-04-25 12:14 19.09020 72.97476 1779 ft 153 kts 274°
2026-04-25 12:14 19.09004 72.96370 1584 ft 147 kts 273°
2026-04-25 12:15 19.08989 72.95313 1417 ft 145 kts 275°
2026-04-25 12:15 19.08974 72.94247 1183 ft 144 kts 276°
2026-04-25 12:15 19.08961 72.93175 1031 ft 146 kts 276°
2026-04-25 12:15 19.08945 72.92116 857 ft 141 kts 273°
2026-04-25 12:16 19.08935 72.91114 696 ft 136 kts 270°
2026-04-25 12:16 19.08917 72.90125 525 ft 133 kts 272°
2026-04-25 12:16 19.08904 72.89150 372 ft 132 kts 271°
2026-04-25 12:16 19.08889 72.88188 191 ft 130 kts 269°
2026-04-25 12:17 19.08873 72.87244 62 ft 124 kts 271°
2026-04-25 12:17 19.08867 72.86424 49 ft 101 kts 269°
2026-04-25 12:17 19.08865 72.85966 50 ft 27 kts 293°
2026-04-25 12:17 19.08989 72.85765 49 ft 37 kts 301°
2026-04-25 12:18 19.09029 72.85666 51 ft 2 kts 272°